COSMOS 2529 (757)

Last updated on Wed Sep 09 2026 00:03:24 GMT+0000 (Coordinated Universal Time)

1 43687U 18086A 26251.23996234 -.00000018 00000+0 00000+0 0 9993 2 43687 64.2965 189.7916 0010832 255.0567 104.8065 2.13101874 61050
UTC large
Height (km)
Speed (km/s)
/
Latitude / Longitude
Inclination (degrees)
Orbital Period (minutes)
Azimuth
Elevation
Range (km)
Doppler Factor

Next 0 passes for location: London (51.5072 / 0.1276)

No passes found over London.
COSMOS 2529 (757)